Time,TemperatureF,DewpointF,PressureIn,WindDirection,WindDirectionDegrees,WindSpeedMPH,WindSpeedGustMPH,Humidity,HourlyPrecipIn,Conditions,Clouds,dailyrainin,SoftwareType,DateUTC
2013-03-16 00:07:00,41.8,41.0,29.79,SSW,199,2.0,-999.0,96,-99.99,,,0.18,weatherlink.com 1.10,2013-03-16 04:07:00,
2013-03-16 00:23:00,41.7,41.0,29.79,SSW,199,2.0,-999.0,96,-99.99,,,0.18,weatherlink.com 1.10,2013-03-16 04:23:00,
2013-03-16 00:38:00,41.6,41.0,29.78,SSW,199,1.0,-999.0,96,-99.99,,,0.18,weatherlink.com 1.10,2013-03-16 04:38:00,
2013-03-16 00:53:00,41.5,41.0,29.79,SSW,199,0.0,-999.0,96,-99.99,,,0.18,weatherlink.com 1.10,2013-03-16 04:53:00,
2013-03-16 01:08:00,41.6,41.0,29.78,SSW,199,0.0,-999.0,96,-99.99,,,0.18,weatherlink.com 1.10,2013-03-16 05:08:00,
2013-03-16 01:23:00,41.5,41.0,29.78,SSW,199,0.0,-999.0,96,-99.99,,,0.19,weatherlink.com 1.10,2013-03-16 05:23:00,
2013-03-16 01:38:00,41.4,40.0,29.77,SSW,199,0.0,-999.0,96,-99.99,,,0.19,weatherlink.com 1.10,2013-03-16 05:38:00,
2013-03-16 01:53:00,41.1,40.0,29.75,SSW,199,2.0,-999.0,96,-99.99,,,0.19,weatherlink.com 1.10,2013-03-16 05:53:00,
2013-03-16 02:08:00,40.7,40.0,29.74,SSW,197,2.0,-999.0,96,-99.99,,,0.19,weatherlink.com 1.10,2013-03-16 06:08:00,
2013-03-16 02:23:00,40.5,40.0,29.72,ESE,122,5.0,-999.0,96,-99.99,,,0.19,weatherlink.com 1.10,2013-03-16 06:23:00,
2013-03-16 02:38:00,40.7,40.0,29.72,ESE,114,6.0,-999.0,97,-99.99,,,0.19,weatherlink.com 1.10,2013-03-16 06:38:00,
2013-03-16 02:53:00,40.8,40.0,29.71,ESE,114,2.0,-999.0,97,-99.99,,,0.19,weatherlink.com 1.10,2013-03-16 06:53:00,
2013-03-16 03:09:00,40.8,40.0,29.71,ESE,114,2.0,-999.0,97,-99.99,,,0.19,weatherlink.com 1.10,2013-03-16 07:09:00,
2013-03-16 03:24:00,40.8,40.0,29.70,ESE,105,7.0,-999.0,97,-99.99,,,0.19,weatherlink.com 1.10,2013-03-16 07:24:00,
2013-03-16 03:39:00,40.7,40.0,29.70,East,88,4.0,-999.0,97,-99.99,,,0.19,weatherlink.com 1.10,2013-03-16 07:39:00,
2013-03-16 03:54:00,40.7,40.0,29.69,ENE,61,7.0,-999.0,97,-99.99,,,0.19,weatherlink.com 1.10,2013-03-16 07:54:00,
2013-03-16 04:09:00,40.0,39.0,29.69,NE,42,9.0,-999.0,97,-99.99,,,0.19,weatherlink.com 1.10,2013-03-16 08:09:00,
2013-03-16 04:24:00,39.5,39.0,29.69,NE,47,4.0,-999.0,97,-99.99,,,0.19,weatherlink.com 1.10,2013-03-16 08:24:00,
2013-03-16 04:39:00,39.1,38.0,29.68,NE,49,8.0,-999.0,97,-99.99,,,0.19,weatherlink.com 1.10,2013-03-16 08:39:00,
2013-03-16 04:54:00,38.8,38.0,29.68,ENE,67,8.0,-999.0,97,-99.99,,,0.19,weatherlink.com 1.10,2013-03-16 08:54:00,
2013-03-16 05:09:00,38.5,38.0,29.69,ENE,63,7.0,-999.0,97,-99.99,,,0.19,weatherlink.com 1.10,2013-03-16 09:09:00,
2013-03-16 05:24:00,38.0,37.0,29.68,ENE,65,5.0,-999.0,97,-99.99,,,0.19,weatherlink.com 1.10,2013-03-16 09:24:00,
2013-03-16 05:39:00,37.7,37.0,29.70,ENE,64,12.0,-999.0,97,-99.99,,,0.19,weatherlink.com 1.10,2013-03-16 09:39:00,
2013-03-16 05:54:00,37.6,37.0,29.70,ENE,57,5.0,-999.0,97,-99.99,,,0.19,weatherlink.com 1.10,2013-03-16 09:54:00,
2013-03-16 06:09:00,37.2,37.0,29.68,ENE,65,7.0,-999.0,97,-99.99,,,0.19,weatherlink.com 1.10,2013-03-16 10:09:00,
2013-03-16 06:25:00,36.6,36.0,29.67,ENE,61,13.0,-999.0,97,-99.99,,,0.19,weatherlink.com 1.10,2013-03-16 10:25:00,
2013-03-16 06:40:00,36.5,36.0,29.66,ENE,69,15.0,-999.0,97,-99.99,,,0.19,weatherlink.com 1.10,2013-03-16 10:40:00,
2013-03-16 06:55:00,36.4,36.0,29.64,ENE,76,15.0,-999.0,97,-99.99,,,0.19,weatherlink.com 1.10,2013-03-16 10:55:00,
2013-03-16 07:10:00,36.2,36.0,29.66,NE,54,12.0,-999.0,97,-99.99,,,0.00,weatherlink.com 1.10,2013-03-16 11:10:00,
2013-03-16 07:25:00,36.0,35.0,29.66,NE,55,11.0,-999.0,97,-99.99,,,0.00,weatherlink.com 1.10,2013-03-16 11:25:00,
2013-03-16 07:40:00,35.7,35.0,29.68,NNE,31,10.0,-999.0,97,-99.99,,,0.00,weatherlink.com 1.10,2013-03-16 11:40:00,
2013-03-16 07:55:00,35.3,35.0,29.69,NNE,23,12.0,-999.0,97,-99.99,,,0.01,weatherlink.com 1.10,2013-03-16 11:55:00,
2013-03-16 08:10:00,35.0,34.0,29.69,NE,43,13.0,-999.0,97,-99.99,,,0.01,weatherlink.com 1.10,2013-03-16 12:10:00,
2013-03-16 08:25:00,34.7,34.0,29.69,NE,53,11.0,-999.0,97,-99.99,,,0.01,weatherlink.com 1.10,2013-03-16 12:25:00,
2013-03-16 08:40:00,34.8,34.0,29.69,ENE,57,6.0,-999.0,98,-99.99,,,0.01,weatherlink.com 1.10,2013-03-16 12:40:00,
2013-03-16 08:55:00,35.0,35.0,29.69,NE,44,6.0,-999.0,98,-99.99,,,0.01,weatherlink.com 1.10,2013-03-16 12:55:00,
2013-03-16 09:11:00,35.0,35.0,29.69,NE,52,7.0,-999.0,98,-99.99,,,0.01,weatherlink.com 1.10,2013-03-16 13:11:00,
2013-03-16 09:26:00,34.7,34.0,29.69,NE,36,10.0,-999.0,98,-99.99,,,0.01,weatherlink.com 1.10,2013-03-16 13:26:00,
2013-03-16 09:41:00,34.5,34.0,29.70,NE,34,9.0,-999.0,97,-99.99,,,0.02,weatherlink.com 1.10,2013-03-16 13:41:00,
2013-03-16 10:11:00,34.4,34.0,29.69,NE,38,3.0,-999.0,98,-99.99,,,0.02,weatherlink.com 1.10,2013-03-16 14:11:00,
2013-03-16 10:26:00,34.3,34.0,29.69,NE,49,8.0,-999.0,98,-99.99,,,0.03,weatherlink.com 1.10,2013-03-16 14:26:00,
2013-03-16 10:41:00,34.1,34.0,29.69,NE,49,5.0,-999.0,98,-99.99,,,0.03,weatherlink.com 1.10,2013-03-16 14:41:00,
2013-03-16 10:56:00,34.2,34.0,29.69,NE,37,8.0,-999.0,98,-99.99,,,0.03,weatherlink.com 1.10,2013-03-16 14:56:00,
2013-03-16 11:11:00,34.0,33.0,29.70,NE,53,13.0,-999.0,97,-99.99,,,0.03,weatherlink.com 1.10,2013-03-16 15:11:00,
2013-03-16 11:26:00,34.1,34.0,29.71,NNE,31,10.0,-999.0,98,-99.99,,,0.03,weatherlink.com 1.10,2013-03-16 15:26:00,
2013-03-16 11:41:00,34.1,34.0,29.73,NE,45,15.0,-999.0,98,-99.99,,,0.03,weatherlink.com 1.10,2013-03-16 15:41:00,
2013-03-16 11:57:00,33.8,33.0,29.73,NNE,24,11.0,-999.0,98,-99.99,,,0.03,weatherlink.com 1.10,2013-03-16 15:57:00,
2013-03-16 12:12:00,33.6,33.0,29.75,North,11,9.0,-999.0,98,-99.99,,,0.03,weatherlink.com 1.10,2013-03-16 16:12:00,
2013-03-16 12:27:00,33.7,33.0,29.76,NNE,12,13.0,-999.0,97,-99.99,,,0.03,weatherlink.com 1.10,2013-03-16 16:27:00,
2013-03-16 12:42:00,33.5,33.0,29.77,NNE,17,6.0,-999.0,97,-99.99,,,0.03,weatherlink.com 1.10,2013-03-16 16:42:00,
2013-03-16 12:57:00,33.7,33.0,29.78,North,9,14.0,-999.0,97,-99.99,,,0.03,weatherlink.com 1.10,2013-03-16 16:57:00,
2013-03-16 13:12:00,33.7,33.0,29.79,NNW,329,9.0,-999.0,97,-99.99,,,0.03,weatherlink.com 1.10,2013-03-16 17:12:00,
2013-03-16 13:27:00,33.2,32.0,29.80,NNW,336,12.0,-999.0,96,-99.99,,,0.03,weatherlink.com 1.10,2013-03-16 17:27:00,
2013-03-16 13:42:00,32.6,32.0,29.82,North,355,10.0,-999.0,96,-99.99,,,0.03,weatherlink.com 1.10,2013-03-16 17:42:00,
2013-03-16 13:57:00,32.0,31.0,29.84,NNW,339,14.0,-999.0,96,-99.99,,,0.03,weatherlink.com 1.10,2013-03-16 17:57:00,
2013-03-16 14:13:00,31.8,31.0,29.85,NNW,345,10.0,-999.0,96,-99.99,,,0.03,weatherlink.com 1.10,2013-03-16 18:13:00,
2013-03-16 14:29:00,31.9,31.0,29.85,North,351,11.0,-999.0,95,-99.99,,,0.03,weatherlink.com 1.10,2013-03-16 18:29:00,
2013-03-16 14:43:00,32.0,31.0,29.86,North,5,13.0,-999.0,95,-99.99,,,0.03,weatherlink.com 1.10,2013-03-16 18:43:00,
2013-03-16 14:58:00,31.8,31.0,29.87,North,10,9.0,-999.0,95,-99.99,,,0.03,weatherlink.com 1.10,2013-03-16 18:58:00,
2013-03-16 15:13:00,31.9,31.0,29.87,NNW,343,11.0,-999.0,95,-99.99,,,0.03,weatherlink.com 1.10,2013-03-16 19:13:00,
2013-03-16 15:28:00,31.9,30.0,29.88,North,5,8.0,-999.0,94,-99.99,,,0.03,weatherlink.com 1.10,2013-03-16 19:28:00,
2013-03-16 15:43:00,31.9,30.0,29.89,North,5,11.0,-999.0,93,-99.99,,,0.03,weatherlink.com 1.10,2013-03-16 19:43:00,
2013-03-16 15:58:00,31.9,30.0,29.90,North,5,8.0,-999.0,93,-99.99,,,0.03,weatherlink.com 1.10,2013-03-16 19:58:00,
2013-03-16 16:13:00,31.9,30.0,29.91,North,351,9.0,-999.0,93,-99.99,,,0.03,weatherlink.com 1.10,2013-03-16 20:13:00,
2013-03-16 16:28:00,31.9,30.0,29.91,NNW,342,9.0,-999.0,93,-99.99,,,0.03,weatherlink.com 1.10,2013-03-16 20:28:00,
2013-03-16 16:44:00,32.0,30.0,29.92,NNW,330,9.0,-999.0,92,-99.99,,,0.03,weatherlink.com 1.10,2013-03-16 20:44:00,
2013-03-16 16:59:00,32.0,30.0,29.92,North,5,9.0,-999.0,92,-99.99,,,0.03,weatherlink.com 1.10,2013-03-16 20:59:00,
2013-03-16 17:14:00,32.1,30.0,29.93,North,360,6.0,-999.0,91,-99.99,,,0.03,weatherlink.com 1.10,2013-03-16 21:14:00,
2013-03-16 17:29:00,32.1,30.0,29.93,NNW,338,8.0,-999.0,91,-99.99,,,0.03,weatherlink.com 1.10,2013-03-16 21:29:00,
2013-03-16 17:44:00,32.3,30.0,29.94,NW,325,6.0,-999.0,91,-99.99,,,0.03,weatherlink.com 1.10,2013-03-16 21:44:00,
2013-03-16 17:59:00,32.3,30.0,29.95,NNW,336,5.0,-999.0,90,-99.99,,,0.03,weatherlink.com 1.10,2013-03-16 21:59:00,
2013-03-16 18:14:00,32.5,30.0,29.96,NW,319,8.0,-999.0,90,-99.99,,,0.03,weatherlink.com 1.10,2013-03-16 22:14:00,
2013-03-16 18:29:00,32.5,30.0,29.96,NNW,332,8.0,-999.0,89,-99.99,,,0.03,weatherlink.com 1.10,2013-03-16 22:29:00,
2013-03-16 18:44:00,32.5,30.0,29.96,NNW,336,6.0,-999.0,90,-99.99,,,0.03,weatherlink.com 1.10,2013-03-16 22:44:00,
2013-03-16 18:59:00,32.5,30.0,29.97,NNW,336,4.0,-999.0,90,-99.99,,,0.03,weatherlink.com 1.10,2013-03-16 22:59:00,
2013-03-16 19:14:00,32.5,30.0,29.98,NNW,336,5.0,-999.0,90,-99.99,,,0.03,weatherlink.com 1.10,2013-03-16 23:14:00,
2013-03-16 19:30:00,32.5,30.0,29.98,NNW,340,5.0,-999.0,90,-99.99,,,0.03,weatherlink.com 1.10,2013-03-16 23:30:00,
2013-03-16 19:45:00,32.5,30.0,29.99,NNW,340,5.0,-999.0,89,-99.99,,,0.03,weatherlink.com 1.10,2013-03-16 23:45:00,
2013-03-16 20:00:00,32.5,30.0,29.99,NNW,339,2.0,-999.0,89,-99.99,,,0.03,weatherlink.com 1.10,2013-03-17 00:00:00,
2013-03-16 20:15:00,32.5,30.0,30.00,NNW,340,0.0,-999.0,89,-99.99,,,0.03,weatherlink.com 1.10,2013-03-17 00:15:00,
2013-03-16 20:30:00,32.5,30.0,30.01,NNW,340,4.0,-999.0,89,-99.99,,,0.03,weatherlink.com 1.10,2013-03-17 00:30:00,
2013-03-16 20:45:00,32.5,30.0,30.01,NNW,339,2.0,-999.0,89,-99.99,,,0.03,weatherlink.com 1.10,2013-03-17 00:45:00,
2013-03-16 21:00:00,32.5,30.0,30.01,NNW,340,2.0,-999.0,89,-99.99,,,0.03,weatherlink.com 1.10,2013-03-17 01:00:00,
2013-03-16 21:15:00,32.5,30.0,30.01,NNW,339,4.0,-999.0,89,-99.99,,,0.03,weatherlink.com 1.10,2013-03-17 01:15:00,
2013-03-16 21:30:00,32.4,30.0,30.02,NNW,339,4.0,-999.0,89,-99.99,,,0.03,weatherlink.com 1.10,2013-03-17 01:30:00,
2013-03-16 21:45:00,32.4,30.0,30.02,NNW,339,4.0,-999.0,89,-99.99,,,0.03,weatherlink.com 1.10,2013-03-17 01:45:00,
2013-03-16 22:00:00,32.4,30.0,30.02,NNW,339,4.0,-999.0,89,-99.99,,,0.03,weatherlink.com 1.10,2013-03-17 02:00:00,
2013-03-16 22:16:00,32.4,29.0,30.02,NNW,339,6.0,-999.0,88,-99.99,,,0.03,weatherlink.com 1.10,2013-03-17 02:16:00,
2013-03-16 22:31:00,32.4,30.0,30.03,NNW,340,4.0,-999.0,89,-99.99,,,0.03,weatherlink.com 1.10,2013-03-17 02:31:00,
2013-03-16 22:46:00,32.4,30.0,30.04,NNW,340,1.0,-999.0,89,-99.99,,,0.03,weatherlink.com 1.10,2013-03-17 02:46:00,
2013-03-16 23:01:00,32.4,30.0,30.05,NNW,339,2.0,-999.0,89,-99.99,,,0.03,weatherlink.com 1.10,2013-03-17 03:01:00,
2013-03-16 23:31:00,32.4,30.0,30.06,NNW,340,2.0,-999.0,89,-99.99,,,0.03,weatherlink.com 1.10,2013-03-17 03:31:00,
2013-03-16 23:46:00,32.5,30.0,30.06,NNW,339,1.0,-999.0,89,-99.99,,,0.03,weatherlink.com 1.10,2013-03-17 03:46:00,